This is the latest recevied weather packets stored in our database for station/object DC8RAI-12. If no packets are shown the sender has not sent any weather packets the latest 10 day(s).
| Time | Temp. | Humidity | Pressure | Rain* | Wind** | Luminosity | Snow |
|---|---|---|---|---|---|---|---|
| 1777650294 | 21.11° C | 27% | 1024.2 hPa | - | - | - | - |
| 1777649394 | 22.22° C | 27% | 1024.2 hPa | - | - | - | - |
| 1777648494 | 22.78° C | 26% | 1024.3 hPa | - | - | - | - |
| 1777647594 | 23.33° C | 25% | 1024.3 hPa | - | - | - | - |
| 1777646694 | 22.78° C | 23% | 1024.4 hPa | - | - | - | - |
| 1777645794 | 23.89° C | 25% | 1024.5 hPa | - | - | - | - |
| 1777644894 | 24.44° C | 26% | 1024.6 hPa | - | - | - | - |
| 1777643994 | 24.44° C | 26% | 1024.6 hPa | - | - | - | - |
| 1777643094 | 23.89° C | 22% | 1024.7 hPa | - | - | - | - |
| 1777642194 | 22.78° C | 23% | 1024.8 hPa | - | - | - | - |
| 1777641294 | 23.33° C | 23% | 1024.8 hPa | - | - | - | - |
| 1777640392 | 22.78° C | 24% | 1025.1 hPa | - | - | - | - |
| 1777639496 | 24.44° C | 24% | 1025.2 hPa | - | - | - | - |
| 1777638596 | 22.78° C | 23% | 1025.3 hPa | - | - | - | - |
| 1777637696 | 23.89° C | 22% | 1025.4 hPa | - | - | - | - |
| 1777636796 | 23.89° C | 27% | 1025.4 hPa | - | - | - | - |
| 1777635896 | 23.89° C | 28% | 1025.6 hPa | - | - | - | - |
| 1777634996 | 22.22° C | 24% | 1025.8 hPa | - | - | - | - |
| 1777634096 | 21.67° C | 26% | 1026 hPa | - | - | - | - |
| 1777633196 | 21.67° C | 23% | 1026.1 hPa | - | - | - | - |
| 1777632296 | 20.56° C | 24% | 1026.3 hPa | - | - | - | - |
| 1777631395 | 21.11° C | 24% | 1026.4 hPa | - | - | - | - |
| 1777630495 | 20.56° C | 25% | 1026.4 hPa | - | - | - | - |
| 1777629595 | 19.44° C | 25% | 1026.6 hPa | - | - | - | - |
| 1777628695 | 17.22° C | 27% | 1026.7 hPa | - | - | - | - |
* Rain since midnight (hover to see other rain measurements)
** Current wind speed in m/s (hover to see current wind gust speed)